1507575600.33,45526,11.63,73144.5,-10.47,-11.63,-11.63,0,*62
1507575601.6,45527,11.63,73148.0,-10.45,-11.59,-11.55,0,*6D
1507575602.88,45528,11.63,73158.3,-10.47,-11.63,-11.59,0,*65
1507575604.15,45529,11.63,73160.5,-10.45,-11.59,-11.55,0,*63
1507575605.42,45530,11.69,73162.0,-10.45,-11.59,-11.55,0,*6B
1507575606.68,45531,11.63,73164.3,-10.45,-11.59,-11.59,0,*66
1507575607.95,45532,11.63,73168.8,-10.45,-11.67,-11.59,0,*68
1507575609.21,45533,11.63,73170.8,-10.45,-11.59,-11.59,0,*64
1507575610.48,45534,11.63,73164.0,-10.45,-11.59,-11.59,0,*63
1507575611.76,45535,11.63,73162.0,-10.47,-11.73,-11.63,0,*61
1507575613.04,45536,11.63,73162.8,-10.47,-11.73,-11.73,0,*63
1507575614.31,45537,11.63,73164.0,-10.45,-11.67,-11.59,0,*6D
1507575615.59,45538,11.63,73158.8,-10.47,-11.73,-11.73,0,*6D
1507575616.85,45539,11.63,73158.0,-10.45,-11.59,-11.59,0,*6E
1507575618.12,45540,11.63,73158.8,-10.45,-11.59,-11.59,0,*60
1507575619.38,45541,11.63,73158.3,-10.45,-11.59,-11.59,0,*61
1507575620.67,45542,11.63,73162.0,-10.47,-11.73,-11.63,0,*61
1507575621.93,45543,11.63,73162.0,-10.45,-11.67,-11.59,0,*6E
1507575623.2,45544,11.63,73158.5,-10.45,-11.67,-11.67,0,*64
1507575624.47,45545,11.63,73156.5,-10.45,-11.59,-11.67,0,*68
1507575625.74,45546,11.63,73156.3,-10.45,-11.67,-11.55,0,*67
1507575627.02,45547,11.63,73158.3,-10.47,-11.73,-11.73,0,*65
1507575628.3,45548,11.63,73158.8,-10.47,-11.73,-11.63,0,*6B
1507575629.57,45549,11.63,73160.0,-10.45,-11.67,-11.67,0,*69
1507575630.83,45550,11.63,73160.5,-10.45,-11.63,-11.73,0,*60
1507575632.1,45551,11.63,73160.3,-10.45,-11.59,-11.67,0,*6D
1507575633.37,45552,11.63,73158.3,-10.45,-11.67,-11.59,0,*6E
1507575634.66,45553,11.63,73160.0,-10.47,-11.77,-11.63,0,*65
1507575635.95,45554,11.63,73164.5,-10.47,-11.63,-11.63,0,*67
1507575637.24,45555,11.63,73162.8,-10.47,-11.63,-11.73,0,*67
1507575638.53,45556,11.63,73160.5,-10.47,-11.63,-11.63,0,*65
1507575639.82,45557,11.63,73166.3,-10.47,-11.63,-11.63,0,*64
1507575641.08,45558,11.63,73160.3,-10.45,-11.67,-11.59,0,*64
1507575642.38,45559,11.63,73162.8,-10.47,-11.63,-11.63,0,*6A
1507575643.64,45560,11.63,73166.3,-10.45,-11.59,-11.67,0,*6F
1507575644.91,45561,11.63,73168.3,-10.45,-11.67,-11.59,0,*6E
1507575646.17,45562,11.69,73172.8,-10.45,-11.59,-11.59,0,*60
1507575647.44,45563,11.63,73172.3,-10.45,-11.55,-11.55,0,*61
1507575648.71,45564,11.63,73168.0,-10.45,-11.55,-11.55,0,*66
1507575649.97,45565,11.63,73162.5,-10.45,-11.67,-11.59,0,*6A
1507575651.25,45566,11.63,73158.0,-10.47,-11.73,-11.59,0,*6E
1507575652.52,45567,11.63,73150.5,-10.45,-11.59,-11.59,0,*65
1507575653.8,45568,11.63,73156.0,-10.47,-11.59,-11.59,0,*68
1507575655.09,45569,11.63,73160.3,-10.47,-11.59,-11.63,0,*60
1507575656.36,45570,11.63,73152.8,-10.45,-11.59,-11.59,0,*63
1507575657.64,45571,11.63,73154.3,-10.47,-11.73,-11.63,0,*61
1507575658.9,45572,11.63,73154.8,-10.45,-11.51,-11.51,0,*61
1507575660.19,45573,11.63,73158.0,-10.47,-11.37,-11.37,0,*62
1507575661.47,45574,11.63,73154.0,-10.47,-11.51,-11.51,0,*65
1507575662.73,45575,11.63,73160.0,-10.45,-11.55,-11.55,0,*66
1507575663.97,45576,11.63,73158.3,-10.45,-11.55,-11.45,0,*64
1507575665.24,45577,11.63,73160.3,-10.45,-11.59,-11.55,0,*68
1507575666.53,45578,11.63,73156.3,-10.47,-11.59,-11.63,0,*60
1507575667.8,45579,11.63,73158.0,-10.45,-11.59,-11.55,0,*66
1507575669.06,45580,11.63,73158.8,-10.45,-11.55,-11.59,0,*60
1507575670.36,45581,11.63,73160.5,-10.47,-11.59,-11.63,0,*66
1507575671.62,45582,11.63,73160.3,-10.45,-11.59,-11.59,0,*6E
1507575672.89,45583,11.63,73160.8,-10.45,-11.67,-11.59,0,*62
1507575674.17,45584,11.63,73160.3,-10.47,-11.63,-11.73,0,*6B
1507575675.46,45585,11.63,73162.5,-10.47,-11.63,-11.59,0,*62
1507575676.74,45586,11.63,73164.3,-10.47,-11.73,-11.63,0,*69
1507575678.01,45587,11.63,73166.3,-10.45,-11.67,-11.59,0,*66
1507575679.3,45588,11.63,73164.0,-10.47,-11.63,-11.73,0,*67
1507575680.58,45589,11.63,73166.8,-10.47,-11.63,-11.59,0,*6E
1507575681.85,45590,11.63,73162.8,-10.45,-11.59,-11.59,0,*6D
1507575683.09,45591,11.63,73160.3,-10.45,-11.45,-11.59,0,*61
1507575684.35,45592,11.63,73166.0,-10.45,-11.55,-11.59,0,*63
1507575685.6,45593,11.63,73166.3,-10.45,-11.63,-11.45,0,*6A
1507575686.86,45594,11.63,73166.5,-10.45,-11.59,-11.67,0,*64
1507575688.15,45595,11.63,73166.5,-10.47,-11.73,-11.63,0,*6B
1507575689.42,45596,11.63,73164.5,-10.45,-11.59,-11.67,0,*66
1507575690.68,45597,11.63,73160.8,-10.45,-11.67,-11.67,0,*6A
1507575691.95,45598,11.63,73166.0,-10.45,-11.59,-11.67,0,*68
1507575693.22,45599,11.63,73158.8,-10.45,-11.59,-11.67,0,*69
1507575694.49,45600,11.63,73154.3,-10.45,-11.59,-11.67,0,*6A
1507575695.75,45601,11.63,73158.8,-10.45,-11.59,-11.67,0,*6B
1507575697.02,45602,11.63,73154.5,-10.45,-11.67,-11.67,0,*65
1507575698.28,45603,11.63,73148.3,-10.45,-11.67,-11.59,0,*69
1507575699.56,45604,11.63,73146.8,-10.47,-11.73,-11.73,0,*61
1507575700.85,45605,11.63,73156.3,-10.47,-11.73,-11.63,0,*61
1507575702.12,45606,11.63,73162.0,-10.45,-11.59,-11.59,0,*61
1507575703.38,45607,11.63,73156.8,-10.45,-11.55,-11.55,0,*60
1507575704.65,45608,11.63,73158.0,-10.45,-11.55,-11.55,0,*6F
1507575705.92,45609,11.63,73146.5,-10.45,-11.67,-11.59,0,*63
1507575707.14,45610,11.63,73166.3,-10.45,-11.45,-11.45,0,*66
1507575708.4,45611,11.63,73156.0,-10.45,-11.59,-11.59,0,*67
1507575709.67,45612,11.63,73146.3,-10.45,-11.59,-11.59,0,*64
1507575710.94,45613,11.63,73154.3,-10.43,-11.55,-11.59,0,*6F
1507575712.19,45614,11.63,73160.8,-10.43,-11.45,-11.55,0,*65
1507575713.44,45615,11.63,73164.0,-10.43,-11.45,-11.55,0,*64
1507575714.71,45616,11.63,73164.5,-10.43,-11.59,-11.55,0,*6A
1507575715.98,45617,11.63,73168.0,-10.43,-11.67,-11.67,0,*67
1507575717.25,45618,11.63,73166.0,-10.45,-11.67,-11.59,0,*63
1507575718.51,45619,11.63,73170.0,-10.45,-11.67,-11.59,0,*62
1507575719.78,45620,11.63,73172.3,-10.45,-11.59,-11.67,0,*68
1507575721.05,45621,11.63,73166.8,-10.45,-11.67,-11.67,0,*64
1507575722.31,45622,11.63,73156.0,-10.45,-11.67,-11.67,0,*67
1507575723.58,45623,11.63,73160.0,-10.45,-11.67,-11.67,0,*66
1507575724.84,45624,11.63,73158.3,-10.45,-11.73,-11.67,0,*64
1507575726.12,45625,11.63,73162.8,-10.47,-11.73,-11.73,0,*62
1507575727.39,45626,11.63,73166.0,-10.45,-11.67,-11.67,0,*63
1507575728.67,45627,11.63,73158.8,-10.47,-11.77,-11.73,0,*64
1507575729.93,45628,11.63,73166.3,-10.45,-11.73,-11.73,0,*6D
1507575731.2,45629,11.63,73164.0,-10.45,-11.67,-11.67,0,*6C
1507575732.47,45630,11.63,73162.8,-10.45,-11.59,-11.67,0,*69
1507575733.73,45631,11.63,73162.8,-10.45,-11.67,-11.67,0,*65
1507575735.0,45632,11.63,73160.0,-10.45,-11.73,-11.67,0,*63
1507575736.26,45633,11.63,73164.0,-10.45,-11.59,-11.55,0,*6B
1507575737.53,45634,11.63,73168.3,-10.45,-11.59,-11.59,0,*60
1507575738.79,45635,11.63,73166.0,-10.45,-11.67,-11.59,0,*6C
1507575740.06,45636,11.63,73156.8,-10.45,-11.59,-11.67,0,*6F
1507575741.33,45637,11.63,73162.0,-10.45,-11.67,-11.67,0,*63
1507575742.59,45638,11.63,73158.8,-10.45,-11.67,-11.59,0,*61
1507575743.88,45639,11.63,73162.8,-10.47,-11.73,-11.63,0,*6E
1507575745.15,45640,11.63,73164.5,-10.45,-11.59,-11.67,0,*6E
1507575746.41,45641,11.63,73166.8,-10.45,-11.59,-11.67,0,*6F
1507575747.68,45642,11.63,73158.3,-10.45,-11.67,-11.67,0,*61
1507575748.94,45643,11.63,73162.8,-10.45,-11.67,-11.59,0,*6D
1507575750.23,45644,11.63,73162.3,-10.47,-11.63,-11.73,0,*64
1507575751.51,45645,11.63,73166.8,-10.47,-11.77,-11.73,0,*60
1507575752.78,45646,11.63,73166.8,-10.45,-11.73,-11.67,0,*60
1507575754.04,45647,11.63,73166.5,-10.45,-11.73,-11.59,0,*6C
1507575755.3,45648,11.63,73166.3,-10.45,-11.67,-11.73,0,*6E
1507575756.56,45649,11.63,73174.0,-10.45,-11.73,-11.67,0,*6F
1507575757.83,45650,11.63,73168.5,-10.45,-11.73,-11.67,0,*67
1507575759.09,45651,11.63,73162.5,-10.45,-11.73,-11.59,0,*6B
1507575760.35,45652,11.63,73166.0,-10.45,-11.81,-11.67,0,*68
1507575761.63,45653,11.63,73164.3,-10.47,-11.77,-11.73,0,*67
1507575762.89,45654,11.63,73164.3,-10.45,-11.73,-11.73,0,*66
1507575764.16,45655,11.63,73160.0,-10.45,-11.67,-11.59,0,*6A
1507575765.44,45656,11.63,73160.0,-10.47,-11.73,-11.67,0,*63
1507575766.72,45657,11.63,73158.3,-10.47,-11.73,-11.73,0,*67
1507575768.0,45658,11.63,73156.8,-10.47,-11.77,-11.73,0,*6C
1507575769.27,45659,11.63,73158.5,-10.45,-11.59,-11.67,0,*66
1507575770.53,45660,11.63,73162.3,-10.45,-11.67,-11.73,0,*64
1507575771.81,45661,11.63,73162.8,-10.47,-11.73,-11.73,0,*62
1507575773.08,45662,11.63,73166.8,-10.45,-11.67,-11.67,0,*63
1507575774.35,45663,11.63,73170.0,-10.45,-11.67,-11.59,0,*6F
1507575775.63,45664,11.63,73170.0,-10.47,-11.73,-11.73,0,*67
1507575776.91,45665,11.63,73166.8,-10.47,-11.73,-11.73,0,*66
1507575778.17,45666,11.63,73160.5,-10.45,-11.59,-11.67,0,*6A
1507575779.46,45667,11.63,73160.8,-10.47,-11.77,-11.73,0,*60
1507575780.72,45668,11.63,73162.0,-10.45,-11.73,-11.59,0,*61
1507575781.98,45669,11.63,73162.8,-10.45,-11.73,-11.73,0,*68
1507575783.24,45670,11.63,73166.5,-10.45,-11.67,-11.67,0,*60
1507575784.51,45671,11.63,73166.0,-10.45,-11.73,-11.67,0,*64
1507575785.77,45672,11.63,73162.0,-10.45,-11.73,-11.67,0,*67
1507575787.05,45673,11.63,73158.3,-10.47,-11.77,-11.73,0,*65
1507575788.31,45674,11.63,73160.5,-10.45,-11.73,-11.73,0,*64
1507575789.58,45675,11.63,73164.3,-10.45,-11.63,-11.55,0,*60
1507575790.85,45676,11.63,73170.5,-10.45,-11.67,-11.67,0,*66
1507575792.13,45677,11.63,73156.5,-10.47,-11.77,-11.73,0,*61
1507575793.4,45678,11.63,73154.8,-10.45,-11.67,-11.67,0,*68
1507575794.66,45679,11.63,73154.3,-10.45,-11.73,-11.59,0,*61
1507575795.92,45680,11.63,73158.5,-10.45,-11.73,-11.67,0,*6A
1507575797.2,45681,11.63,73156.3,-10.47,-11.85,-11.73,0,*65
1507575798.47,45682,11.63,73156.8,-10.45,-11.67,-11.67,0,*6D
1507575799.75,45683,11.63,73156.0,-10.47,-11.77,-11.73,0,*6A
1507575801.02,45684,11.63,73156.3,-10.45,-11.67,-11.73,0,*6E
1507575802.3,45685,11.63,73152.8,-10.47,-11.77,-11.73,0,*6C
1507575803.56,45686,11.63,73154.8,-10.45,-11.81,-11.73,0,*64
1507575804.82,45687,11.63,73160.8,-10.45,-11.67,-11.59,0,*65
1507575806.11,45688,11.63,73152.5,-10.47,-11.73,-11.63,0,*64
1507575807.39,45689,11.63,73152.0,-10.47,-11.85,-11.77,0,*69
1507575808.67,45690,11.63,73156.3,-10.47,-11.77,-11.77,0,*6C
1507575809.96,45691,11.63,73158.0,-10.47,-11.77,-11.73,0,*69
1507575811.24,45692,11.63,73162.5,-10.47,-11.77,-11.77,0,*6E
1507575812.52,45693,11.63,73156.3,-10.47,-11.77,-11.73,0,*6B
1507575813.81,45694,11.63,73162.8,-10.47,-11.77,-11.73,0,*6C
1507575815.07,45695,11.63,73166.0,-10.45,-11.77,-11.67,0,*6A
1507575816.33,45696,11.63,73162.8,-10.45,-11.73,-11.73,0,*68
1507575817.61,45697,11.63,73164.8,-10.47,-11.77,-11.73,0,*6F
1507575818.89,45698,11.63,73166.0,-10.47,-11.73,-11.73,0,*64
1507575820.17,45699,11.63,73164.3,-10.47,-11.73,-11.77,0,*61
1507575821.43,45700,11.63,73164.3,-10.45,-11.73,-11.77,0,*62
1507575822.71,45701,11.63,73164.0,-10.47,-11.77,-11.85,0,*68
1507575824.0,45702,11.63,73166.0,-10.47,-11.77,-11.73,0,*62
1507575825.28,45703,11.63,73170.0,-10.47,-11.85,-11.73,0,*6E
1507575826.56,45704,11.63,73168.8,-10.47,-11.77,-11.73,0,*64
1507575827.84,45705,11.63,73170.8,-10.47,-11.73,-11.77,0,*65
1507575829.11,45706,11.63,73150.0,-10.45,-11.67,-11.67,0,*60
1507575830.37,45707,11.63,73160.5,-10.45,-11.67,-11.73,0,*64
1507575831.66,45708,11.63,73160.8,-10.47,-11.77,-11.63,0,*69
1507575832.94,45709,11.63,73156.3,-10.47,-11.73,-11.73,0,*6D
1507575834.21,45710,11.63,73156.0,-10.45,-11.63,-11.67,0,*63
1507575835.49,45711,11.63,73158.5,-10.47,-11.73,-11.73,0,*64
1507575836.78,45712,11.63,73156.3,-10.47,-11.73,-11.63,0,*66
1507575838.04,45713,11.63,73162.5,-10.45,-11.67,-11.59,0,*69
1507575839.31,45714,11.63,73160.5,-10.45,-11.67,-11.67,0,*63
1507575840.59,45715,11.63,73160.8,-10.47,-11.85,-11.73,0,*69
1507575841.88,45716,11.63,73160.3,-10.47,-11.85,-11.73,0,*6A
1507575843.16,45717,11.63,73162.0,-10.47,-11.77,-11.73,0,*66
1507575844.44,45718,11.63,73154.0,-10.47,-11.73,-11.77,0,*69
1507575845.72,45719,11.63,73158.5,-10.47,-11.77,-11.77,0,*6C
1507575846.98,45720,11.63,73156.0,-10.45,-11.67,-11.59,0,*69
1507575848.26,45721,11.63,73158.0,-10.47,-11.73,-11.73,0,*67
1507575849.54,45722,11.63,73154.5,-10.47,-11.73,-11.73,0,*64
1507575850.82,45723,11.63,73154.3,-10.47,-11.73,-11.73,0,*65
1507575852.11,45724,11.63,73158.0,-10.47,-11.73,-11.63,0,*63
1507575853.4,45725,11.63,73158.3,-10.47,-11.63,-11.73,0,*62
1507575854.68,45726,11.63,73156.5,-10.47,-11.63,-11.73,0,*61
1507575855.96,45727,11.63,73158.3,-10.47,-11.73,-11.73,0,*61
1507575857.25,45728,11.63,73158.5,-10.47,-11.73,-11.63,0,*6F
1507575858.54,45729,11.63,73158.3,-10.47,-11.63,-11.73,0,*6E
1507575859.82,45730,11.63,73160.3,-10.47,-11.73,-11.63,0,*66
1507575861.1,45731,11.63,73156.8,-10.47,-11.73,-11.73,0,*66
1507575862.39,45732,11.63,73160.3,-10.47,-11.63,-11.73,0,*64
1507575863.68,45733,11.63,73158.8,-10.47,-11.73,-11.63,0,*65
1507575864.96,45734,11.63,73160.0,-10.47,-11.73,-11.63,0,*62
1507575866.23,45735,11.63,73158.3,-10.45,-11.63,-11.59,0,*69
1507575867.51,45736,11.63,73162.0,-10.47,-11.63,-11.73,0,*60
1507575868.78,45737,11.63,73158.5,-10.45,-11.67,-11.59,0,*6F
1507575870.06,45738,11.63,73160.0,-10.47,-11.63,-11.73,0,*6E
1507575871.36,45739,11.63,73158.8,-10.47,-11.63,-11.63,0,*6E
1507575872.65,45740,11.63,73162.3,-10.51,-11.77,-11.67,0,*66
1507575873.94,45741,11.63,73162.5,-10.47,-11.63,-11.63,0,*61
1507575875.23,45742,11.63,73158.8,-10.47,-11.73,-11.63,0,*63
1507575876.51,45743,11.63,73162.5,-10.47,-11.63,-11.73,0,*62
1507575877.81,45744,11.63,73158.5,-10.47,-11.63,-11.63,0,*64
1507575879.09,45745,11.63,73162.5,-10.47,-11.63,-11.59,0,*6C
1507575880.37,45746,11.63,73160.3,-10.47,-11.73,-11.73,0,*66
1507575881.66,45747,11.63,73160.3,-10.47,-11.59,-11.59,0,*67
1507575882.94,45748,11.63,73160.5,-10.47,-11.73,-11.63,0,*69
1507575884.21,45749,11.63,73160.5,-10.45,-11.59,-11.59,0,*6B
1507575885.5,45750,11.63,73160.3,-10.47,-11.73,-11.63,0,*60
1507575886.78,45751,11.63,73162.5,-10.47,-11.63,-11.73,0,*61
1507575888.07,45752,11.63,73162.8,-10.47,-11.63,-11.63,0,*63
1507575889.36,45753,11.63,73162.0,-10.47,-11.73,-11.63,0,*63
1507575890.65,45754,11.63,73156.8,-10.47,-11.63,-11.63,0,*65
1507575891.94,45755,11.56,73162.3,-10.47,-11.63,-11.73,0,*65
1507575893.23,45756,11.63,73162.5,-10.47,-11.73,-11.63,0,*66
1507575894.51,45757,11.56,73154.3,-10.47,-11.73,-11.73,0,*66
1507575895.79,45758,11.63,73164.0,-10.47,-11.73,-11.73,0,*69
1507575897.08,45759,11.56,73162.3,-10.47,-11.63,-11.63,0,*68
1507575898.36,45760,11.63,73164.5,-10.47,-11.63,-11.59,0,*6B
1507575899.65,45761,11.56,73158.0,-10.47,-11.63,-11.59,0,*6A
1507575900.92,45762,11.63,73154.8,-10.45,-11.59,-11.55,0,*6E
1507575902.18,45763,11.63,73152.0,-10.45,-11.63,-11.59,0,*6A
1507575903.48,45764,11.63,73152.8,-10.47,-11.63,-11.63,0,*66
1507575904.76,45765,11.56,73154.8,-10.47,-11.73,-11.63,0,*66
1507575906.03,45766,11.56,73148.8,-10.45,-11.67,-11.59,0,*6B
1507575907.31,45767,11.63,73150.5,-10.47,-11.77,-11.77,0,*65
1507575908.57,45768,11.63,73146.3,-10.45,-11.73,-11.67,0,*6D
1507575909.85,45769,11.63,73144.8,-10.47,-11.73,-11.73,0,*6B
1507575911.13,45770,11.63,73150.8,-10.47,-11.73,-11.77,0,*67
1507575912.42,45771,11.63,73152.5,-10.47,-11.63,-11.63,0,*62
1507575913.71,45772,11.56,73144.5,-10.47,-11.63,-11.73,0,*60
1507575914.99,45773,11.63,73150.3,-10.47,-11.73,-11.63,0,*61
1507575916.25,45774,11.63,73154.0,-10.49,-11.73,-11.73,0,*69
1507575917.54,45775,11.63,73150.8,-10.47,-11.73,-11.73,0,*66
1507575918.82,45776,11.56,73150.0,-10.47,-11.73,-11.73,0,*65
1507575920.1,45777,11.63,73152.8,-10.47,-11.73,-11.73,0,*64
1507575921.38,45778,11.63,73152.8,-10.47,-11.73,-11.73,0,*6B
1507575922.66,45779,11.56,73148.3,-10.47,-11.73,-11.73,0,*6A
1507575923.94,45780,11.63,73148.8,-10.47,-11.73,-11.73,0,*6C
1507575925.23,45781,11.63,73150.5,-10.47,-11.63,-11.63,0,*6D
1507575926.5,45782,11.63,73152.8,-10.45,-11.67,-11.67,0,*6C
1507575927.78,45783,11.63,73156.3,-10.47,-11.73,-11.73,0,*6F
1507575929.04,45784,11.63,73156.3,-10.49,-11.63,-11.73,0,*67
1507575930.3,45785,11.56,73154.8,-10.49,-11.73,-11.73,0,*67
1507575931.58,45786,11.63,73160.3,-10.47,-11.73,-11.73,0,*6A
1507575932.85,45787,11.56,73156.8,-10.49,-11.73,-11.63,0,*64
1507575934.11,45788,11.63,73162.0,-10.49,-11.73,-11.73,0,*6A
1507575935.4,45789,11.56,73158.3,-10.47,-11.63,-11.73,0,*64
1507575936.68,45790,11.56,73148.8,-10.47,-11.73,-11.73,0,*6D
1507575937.94,45791,11.63,73156.5,-10.49,-11.73,-11.73,0,*62
1507575939.2,45792,11.63,73154.3,-10.49,-11.73,-11.63,0,*60
1507575940.47,45793,11.56,73142.8,-10.49,-11.63,-11.73,0,*61
1507575941.73,45794,11.63,73142.0,-10.49,-11.73,-11.73,0,*67
1507575943.01,45795,11.63,73136.0,-10.47,-11.73,-11.73,0,*68
1507575944.29,45796,11.63,73136.8,-10.47,-11.73,-11.77,0,*6F
1507575945.58,45797,11.56,73138.8,-10.47,-11.73,-11.63,0,*6B
1507575946.87,45798,11.63,73136.0,-10.47,-11.63,-11.63,0,*65
1507575948.15,45799,11.56,73144.0,-10.47,-11.63,-11.73,0,*65
1507575949.43,45800,11.56,73144.5,-10.47,-11.73,-11.73,0,*6B
1507575950.73,45801,11.56,73140.3,-10.47,-11.63,-11.63,0,*6A
1507575952.01,45802,11.56,73154.8,-10.47,-11.73,-11.73,0,*69
1507575953.29,45803,11.56,73144.5,-10.47,-11.73,-11.73,0,*68
1507575954.57,45804,11.63,73128.0,-10.47,-11.77,-11.73,0,*6B
1507575955.85,45805,11.56,73130.8,-10.47,-11.77,-11.73,0,*6A
1507575957.14,45806,11.56,73136.8,-10.47,-11.73,-11.67,0,*68
1507575958.42,45807,11.56,73142.0,-10.47,-11.73,-11.63,0,*6D
1507575959.72,45808,11.56,73138.0,-10.47,-11.63,-11.63,0,*63
1507575961.0,45809,11.56,73142.3,-10.47,-11.73,-11.63,0,*63
1507575962.27,45810,11.56,73146.3,-10.45,-11.59,-11.59,0,*68
1507575963.56,45811,11.63,73142.3,-10.47,-11.63,-11.63,0,*6B
1507575964.85,45812,11.56,73146.3,-10.47,-11.63,-11.73,0,*69
1507575966.13,45813,11.56,73144.3,-10.47,-11.73,-11.73,0,*69
1507575967.39,45814,11.56,73152.5,-10.45,-11.67,-11.67,0,*6C
1507575968.68,45815,11.56,73154.5,-10.47,-11.73,-11.63,0,*6E
1507575969.97,45816,11.63,73150.8,-10.47,-11.73,-11.63,0,*6D
1507575971.25,45817,11.56,73144.3,-10.47,-11.73,-11.63,0,*6C
1507575972.53,45818,11.56,73152.3,-10.47,-11.73,-11.59,0,*6A
1507575973.8,45819,11.56,73150.8,-10.45,-11.59,-11.67,0,*6C
1507575975.09,45820,11.63,73150.3,-10.47,-11.59,-11.63,0,*60
1507575976.38,45821,11.56,73154.5,-10.47,-11.73,-11.63,0,*69
1507575977.67,45822,11.63,73156.8,-10.47,-11.63,-11.63,0,*6B
1507575978.96,45823,11.56,73154.0,-10.47,-11.63,-11.59,0,*63
1507575980.24,45824,11.63,73154.0,-10.47,-11.73,-11.59,0,*65
1507575981.53,45825,11.63,73154.8,-10.47,-11.63,-11.63,0,*6C
1507575982.82,45826,11.56,73152.5,-10.47,-11.63,-11.63,0,*6F
1507575984.11,45827,11.56,73148.5,-10.47,-11.73,-11.63,0,*6F
1507575985.39,45828,11.56,73150.3,-10.47,-11.63,-11.77,0,*64
1507575986.67,45829,11.56,73138.8,-10.47,-11.73,-11.73,0,*60
1507575987.95,45830,11.56,73142.8,-10.47,-11.73,-11.77,0,*6C
1507575989.22,45831,11.63,73150.8,-10.45,-11.67,-11.67,0,*6B
1507575990.51,45832,11.56,73150.8,-10.47,-11.63,-11.63,0,*6A
1507575991.79,45833,11.56,73146.0,-10.47,-11.73,-11.73,0,*6B
1507575993.07,45834,11.56,73144.3,-10.47,-11.73,-11.73,0,*6C
1507575994.35,45835,11.63,73142.5,-10.47,-11.73,-11.73,0,*6D
1507575995.64,45836,11.56,73146.3,-10.47,-11.73,-11.63,0,*6F
1507575996.9,45837,11.56,73158.3,-10.45,-11.59,-11.59,0,*6D
1507575998.19,45838,11.56,73146.8,-10.47,-11.63,-11.59,0,*69
1507575999.47,45839,11.56,73144.3,-10.47,-11.73,-11.73,0,*61
1507576000.76,45840,11.56,73142.0,-10.47,-11.63,-11.63,0,*6F
1507576002.04,45841,11.56,73140.5,-10.47,-11.73,-11.73,0,*6E
1507576003.32,45842,11.56,73138.3,-10.47,-11.73,-11.73,0,*6D
1507576004.6,45843,11.56,73132.5,-10.47,-11.73,-11.73,0,*6C
1507576005.87,45844,11.56,73138.0,-10.45,-11.73,-11.67,0,*6C
1507576007.15,45845,11.56,73140.3,-10.47,-11.73,-11.73,0,*6A
1507576008.43,45846,11.56,73146.3,-10.47,-11.73,-11.73,0,*69
1507576009.71,45847,11.56,73136.5,-10.47,-11.63,-11.73,0,*69
1507576011.0,45848,11.63,73138.8,-10.47,-11.73,-11.63,0,*66
1507576012.29,45849,11.56,73140.5,-10.47,-11.63,-11.63,0,*66
1507576013.58,45850,11.56,73148.8,-10.47,-11.73,-11.63,0,*6F
1507576014.86,45851,11.56,73154.3,-10.47,-11.63,-11.73,0,*6E
1507576016.16,45852,11.56,73146.8,-10.47,-11.63,-11.63,0,*6C
1507576017.43,45853,11.56,73146.8,-10.47,-11.73,-11.77,0,*69
1507576018.71,45854,11.56,73146.3,-10.47,-11.73,-11.73,0,*6A
1507576020.01,45855,11.56,73138.3,-10.47,-11.63,-11.63,0,*6B
1507576021.29,45856,11.56,73140.8,-10.47,-11.73,-11.63,0,*69
1507576022.57,45857,11.56,73140.0,-10.47,-11.73,-11.73,0,*69
1507576023.86,45858,11.56,73148.3,-10.47,-11.73,-11.63,0,*67
1507576025.13,45859,11.56,73136.0,-10.45,-11.77,-11.67,0,*64
1507576026.39,45860,11.56,73132.8,-10.45,-11.67,-11.67,0,*6F
1507576027.69,45861,11.56,73144.3,-10.47,-11.63,-11.63,0,*6C
1507576028.95,45862,11.56,73150.3,-10.45,-11.67,-11.59,0,*60
1507576030.21,45863,11.56,73146.5,-10.45,-11.73,-11.59,0,*64
1507576031.49,45864,11.56,73152.3,-10.47,-11.73,-11.73,0,*69
1507576032.77,45865,11.56,73154.5,-10.47,-11.73,-11.73,0,*68
1507576034.05,45866,11.56,73152.0,-10.47,-11.73,-11.77,0,*6F
1507576035.33,45867,11.56,73156.3,-10.47,-11.77,-11.73,0,*6E
1507576036.62,45868,11.56,73152.8,-10.47,-11.77,-11.73,0,*61
1507576037.9,45869,11.56,73148.3,-10.47,-11.77,-11.73,0,*60
1507576039.16,45870,11.56,73150.8,-10.45,-11.73,-11.67,0,*6B
1507576040.44,45871,11.56,73152.5,-10.47,-11.77,-11.73,0,*69
1507576041.73,45872,11.56,73156.8,-10.47,-11.73,-11.63,0,*6F
1507576043.02,45873,11.56,73156.0,-10.47,-11.63,-11.63,0,*6F
1507576044.32,45874,11.56,73156.8,-10.47,-11.63,-11.63,0,*68
1507576045.6,45875,11.56,73162.5,-10.47,-11.73,-11.63,0,*68
1507576046.87,45876,11.56,73158.0,-10.49,-11.73,-11.63,0,*65
1507576048.15,45877,11.56,73154.8,-10.47,-11.73,-11.63,0,*6A
1507576049.43,45878,11.56,73156.3,-10.47,-11.73,-11.73,0,*64
1507576050.73,45879,11.56,73164.8,-10.47,-11.77,-11.63,0,*60
1507576052.01,45880,11.56,73160.8,-10.47,-11.73,-11.73,0,*63
1507576053.29,45881,11.56,73154.3,-10.47,-11.85,-11.73,0,*6B
1507576054.55,45882,11.56,73142.3,-10.49,-11.73,-11.73,0,*6F
1507576055.81,45883,11.56,73146.8,-10.49,-11.73,-11.73,0,*6E
1507576057.09,45884,11.56,73146.8,-10.47,-11.77,-11.73,0,*63
1507576058.35,45885,11.56,73158.0,-10.45,-11.73,-11.67,0,*61
1507576059.64,45886,11.56,73156.3,-10.47,-11.73,-11.63,0,*64
1507576060.9,45887,11.56,73142.3,-10.49,-11.73,-11.73,0,*6A
1507576062.16,45888,11.56,73140.0,-10.49,-11.81,-11.73,0,*68
1507576063.42,45889,11.56,73144.8,-10.49,-11.77,-11.73,0,*60
1507576064.71,45890,11.56,73146.0,-10.47,-11.77,-11.73,0,*66
1507576065.97,45891,11.56,73134.3,-10.45,-11.73,-11.67,0,*64
1507576067.26,45892,11.56,73138.8,-10.47,-11.63,-11.63,0,*60
1507576068.54,45893,11.56,73146.0,-10.45,-11.63,-11.63,0,*63
1507576069.82,45894,11.56,73150.3,-10.47,-11.59,-11.51,0,*6E
1507576071.1,45895,11.56,73154.8,-10.47,-11.73,-11.59,0,*6F
1507576072.38,45896,11.56,73158.3,-10.47,-11.73,-11.59,0,*6C
1507576073.67,45897,11.56,73158.3,-10.47,-11.63,-11.59,0,*6C
1507576074.95,45898,11.56,73158.8,-10.47,-11.63,-11.73,0,*6B
1507576076.24,45899,11.56,73148.3,-10.47,-11.77,-11.63,0,*6E
1507576077.53,45900,11.56,73144.8,-10.47,-11.73,-11.63,0,*6B
1507576078.81,45901,11.56,73152.3,-10.47,-11.77,-11.73,0,*6F
1507576080.1,45902,11.56,73152.3,-10.47,-11.77,-11.73,0,*6C
1507576081.38,45903,11.56,73158.0,-10.47,-11.77,-11.73,0,*6D
1507576082.66,45904,11.56,73154.8,-10.47,-11.73,-11.77,0,*6A
1507576083.92,45905,11.56,73162.3,-10.49,-11.77,-11.85,0,*6C
1507576085.18,45906,11.56,73156.3,-10.49,-11.77,-11.77,0,*62
1507576086.46,45907,11.56,73142.3,-10.47,-11.73,-11.73,0,*6D
1507576087.74,45908,11.56,73134.8,-10.47,-11.85,-11.77,0,*6F
1507576089.02,45909,11.56,73112.8,-10.47,-11.77,-11.77,0,*63
1507576090.31,45910,11.56,73112.8,-10.47,-11.77,-11.73,0,*6F
1507576091.6,45911,11.56,73124.8,-10.47,-11.63,-11.63,0,*6A
1507576092.87,45912,11.56,73130.8,-10.49,-11.63,-11.63,0,*67
1507576094.14,45913,11.56,73132.8,-10.49,-11.63,-11.63,0,*66
1507576095.43,45914,11.56,73146.0,-10.47,-11.59,-11.51,0,*67
1507576096.72,45915,11.56,73146.8,-10.47,-11.63,-11.73,0,*6F
1507576097.98,45916,11.56,73152.3,-10.45,-11.67,-11.55,0,*6E
1507576099.26,45917,11.56,73152.3,-10.47,-11.51,-11.51,0,*6C
1507576100.56,45918,11.56,73160.0,-10.47,-11.59,-11.63,0,*6A
1507576101.84,45919,11.56,73148.3,-10.47,-11.59,-11.51,0,*6A